COSMOS 1797

Satellite information

Favourite Embed

Satellite Type and Status

PAYLOADIN ORBIT

Key statistics

Satellite COSMOS 1797 at a glance.

Uptime

14267

Days in orbit

Revolutions

≈ 12.5

Per day

Orbit

LEO

Low Earth Orbit

Inclination

74.0

Latest

Satellite identification and parameters

Extended collection of information and parameters for COSMOS 1797.

Object identification

Identified? True

Debris? False

Object name: COSMOS 1797

International designator: 1986-092D

Object number (NORAD): 17141

Object ID (CCSDS): 17141

Country: COMMONWEALTH OF INDEPENDENT STATES (CIS)

Current information (Y/N): Y

RCS size: MEDIUM

Orbital parameters

Period: 115.049 minutes

Inclination: 74.0114 deg

SMA: 7835.776 km

Apoapsis: 1472.555 km

Periapsis: 1442.728 km

RAAN: 147.2821 deg

Eccentricy: 0.0019033

Argument of periapsis: 242.6768 deg

Mean anomaly: 291.5263 deg

Mean motion: 12.51640786 rev/day

Mean motion (dot): 0.0 rev/day2

B* drag term: 0.000103254 1/REarth

Two-line elements (TLE)

Creation date: Dec. 12, 2025, 10:14 a.m.

Reference frame: TEME

Reference center: EARTH

Epoch: Dec. 12, 2025, 5:53 a.m. UTC

TLE line 0: 0 COSMOS 1797

TLE line 1: 1 17141U 86092D 25346.24570299 .00000000 00000-0 10325-3 0 9991

TLE line 2: 2 17141 74.0114 147.2821 0019033 242.6768 291.5263 12.51640786784624

Live tracking on map

Real-time ground track for satellite COSMOS 1797.

In-orbit conjunctions

A list of the most updated potential collisions computed for object COSMOS 1797.

Target Orbit TCA Probability of collision Miss distance Type
COSMOS 2499 DEB LEO 2025-06-18 03:54:42 0.0005473243 251.0 (m) DEBRIS

Associated space launch

Military communications satellites

COSMOS 1797 was lifted into orbit during the mission ‘Kosmos-3M | Strela-1M 313-320’, on board a Kosmos-3M space rocket.

The launch took place on Nov. 21, 1986, 2 a.m. from 132/2.

For more information about the launch, click the button.

Launch to space Kosmos-3M | Strela-1M 313-320
Kosmos-3M | Strela-1M 313-320

Agency: N/A

Status: Launch Successful

Launch date: Nov. 21, 1986, 2 a.m. UTC

Rocket: Kosmos-3M

Launch pad: 132/2

Location: Plesetsk Cosmodrome, Russian Federation

...

Latest news about this satellite

There are no fresh news available about this satellite. Check back as we update our databases every day.


Newsletter sign-up

Weekly statistics, charts and insights to help you stay on top of the space industry.